TimeCST,TemperatureF,Dew PointF,Humidity,Sea Level PressureIn,VisibilityMPH,Wind Direction,Wind SpeedMPH,Gust SpeedMPH,PrecipitationIn,Events,Conditions,WindDirDegrees,DateUTC
12:15 AM,39.2,39.2,100,30.36,8.0,Calm,Calm,-,N/A,,Scattered Clouds,0,2013-12-13 06:15:00
12:35 AM,41.0,37.4,87,30.36,9.0,Calm,Calm,-,N/A,,Mostly Cloudy,0,2013-12-13 06:35:00
12:55 AM,41.0,37.4,87,30.34,10.0,Calm,Calm,-,N/A,,Overcast,0,2013-12-13 06:55:00
1:15 AM,39.2,39.2,100,30.34,10.0,Calm,Calm,-,N/A,,Overcast,0,2013-12-13 07:15:00
1:35 AM,41.0,37.4,87,30.32,10.0,Calm,Calm,-,N/A,,Overcast,0,2013-12-13 07:35:00
1:55 AM,41.0,39.2,93,30.30,9.0,ENE,4.6,-,N/A,,Overcast,60,2013-12-13 07:55:00
2:15 AM,41.0,39.2,93,30.28,9.0,ENE,6.9,-,N/A,,Overcast,70,2013-12-13 08:15:00
2:35 AM,41.0,39.2,93,30.27,9.0,East,4.6,-,N/A,,Mostly Cloudy,90,2013-12-13 08:35:00
2:55 AM,41.0,39.2,93,30.27,8.0,ENE,3.5,-,N/A,,Scattered Clouds,70,2013-12-13 08:55:00
3:15 AM,41.0,39.2,93,30.27,9.0,Calm,Calm,-,N/A,,Clear,0,2013-12-13 09:15:00
3:35 AM,41.0,39.2,93,30.27,9.0,Calm,Calm,-,N/A,,Clear,0,2013-12-13 09:35:00
3:55 AM,41.0,41.0,100,30.26,9.0,NE,4.6,-,N/A,,Clear,40,2013-12-13 09:55:00
4:15 AM,42.8,39.2,87,30.25,10.0,NE,3.5,-,N/A,,Clear,50,2013-12-13 10:15:00
4:35 AM,41.0,39.2,93,30.24,10.0,North,4.6,-,N/A,,Clear,360,2013-12-13 10:35:00
4:55 AM,41.0,39.2,93,30.24,9.0,Calm,Calm,-,N/A,,Clear,0,2013-12-13 10:55:00
5:15 AM,41.0,39.2,93,30.23,9.0,North,3.5,-,N/A,,Clear,10,2013-12-13 11:15:00
5:35 AM,41.0,41.0,100,30.24,8.0,North,3.5,-,N/A,,Scattered Clouds,360,2013-12-13 11:35:00
5:55 AM,42.8,41.0,93,30.23,8.0,NNE,4.6,-,N/A,,Overcast,20,2013-12-13 11:55:00
6:15 AM,44.6,39.2,81,30.22,9.0,NE,4.6,-,N/A,,Overcast,50,2013-12-13 12:15:00
6:35 AM,44.6,39.2,81,30.23,10.0,North,3.5,-,N/A,,Overcast,10,2013-12-13 12:35:00
6:55 AM,42.8,39.2,87,30.21,9.0,NE,3.5,-,N/A,,Overcast,50,2013-12-13 12:55:00
7:15 AM,44.6,39.2,81,30.19,9.0,ENE,5.8,-,N/A,,Overcast,70,2013-12-13 13:15:00
7:35 AM,44.6,39.2,81,30.20,7.0,ENE,5.8,-,N/A,,Scattered Clouds,70,2013-12-13 13:35:00
7:55 AM,44.6,39.2,81,30.19,7.0,ENE,6.9,-,N/A,,Clear,70,2013-12-13 13:55:00
8:15 AM,46.4,39.2,76,30.18,7.0,East,6.9,-,N/A,,Clear,90,2013-12-13 14:15:00
8:35 AM,46.4,41.0,81,30.17,7.0,East,4.6,-,N/A,,Clear,80,2013-12-13 14:35:00
8:55 AM,48.2,41.0,76,30.18,7.0,East,4.6,-,N/A,,Mostly Cloudy,80,2013-12-13 14:55:00
9:15 AM,50.0,41.0,71,30.18,7.0,East,6.9,-,N/A,,Overcast,100,2013-12-13 15:15:00
9:35 AM,50.0,42.8,76,30.16,7.0,East,4.6,-,N/A,,Overcast,80,2013-12-13 15:35:00
9:55 AM,50.0,42.8,76,30.16,7.0,ENE,3.5,-,N/A,,Overcast,70,2013-12-13 15:55:00
10:15 AM,51.8,44.6,76,30.16,8.0,ENE,3.5,-,N/A,,Overcast,60,2013-12-13 16:15:00
10:35 AM,51.8,44.6,76,30.15,7.0,NE,4.6,-,N/A,,Overcast,50,2013-12-13 16:35:00
10:55 AM,53.6,44.6,72,30.13,8.0,ENE,5.8,-,N/A,,Overcast,70,2013-12-13 16:55:00
11:15 AM,53.6,44.6,72,30.11,7.0,ENE,3.5,-,N/A,,Overcast,60,2013-12-13 17:15:00
11:35 AM,53.6,44.6,72,30.10,7.0,NNE,3.5,-,N/A,,Overcast,30,2013-12-13 17:35:00
11:55 AM,53.6,46.4,77,30.09,7.0,NNE,4.6,-,N/A,,Mostly Cloudy,20,2013-12-13 17:55:00
12:15 PM,53.6,46.4,77,30.06,7.0,NE,5.8,-,N/A,,Overcast,50,2013-12-13 18:15:00
12:35 PM,53.6,46.4,77,30.04,7.0,ENE,5.8,-,N/A,,Overcast,60,2013-12-13 18:35:00
12:55 PM,53.6,46.4,77,30.03,7.0,NE,5.8,-,N/A,,Overcast,50,2013-12-13 18:55:00
1:15 PM,53.6,46.4,77,30.02,7.0,NNE,4.6,-,N/A,,Overcast,30,2013-12-13 19:15:00
1:35 PM,53.6,46.4,77,30.00,7.0,NE,3.5,-,N/A,,Overcast,40,2013-12-13 19:35:00
1:55 PM,53.6,48.2,82,30.00,6.0,Calm,Calm,-,N/A,,Haze,0,2013-12-13 19:55:00
2:15 PM,53.6,48.2,82,29.99,7.0,North,4.6,-,N/A,,Overcast,360,2013-12-13 20:15:00
2:35 PM,53.6,48.2,82,29.98,7.0,Calm,Calm,-,N/A,,Overcast,0,2013-12-13 20:35:00
2:55 PM,53.6,48.2,82,29.98,5.0,NNE,6.9,-,N/A,,Haze,30,2013-12-13 20:55:00
3:15 PM,53.6,48.2,82,29.97,5.0,NNE,6.9,-,N/A,,Haze,20,2013-12-13 21:15:00
3:55 PM,53.6,50.0,88,29.94,3.0,NE,5.8,-,N/A,Rain,Light Rain,50,2013-12-13 21:55:00
4:15 PM,53.6,53.6,100,29.93,3.0,ENE,8.1,-,N/A,,Mostly Cloudy,70,2013-12-13 22:15:00
4:35 PM,53.6,53.6,100,29.91,2.0,East,9.2,-,N/A,,Overcast,80,2013-12-13 22:35:00
4:55 PM,53.6,53.6,100,29.89,1.5,East,12.7,-,N/A,,Overcast,100,2013-12-13 22:55:00
5:15 PM,53.6,53.6,100,29.87,1.2,East,11.5,-,N/A,,Overcast,90,2013-12-13 23:15:00
5:35 PM,53.6,53.6,100,29.89,1.5,East,5.8,-,N/A,,Overcast,100,2013-12-13 23:35:00
5:55 PM,53.6,53.6,100,29.90,1.2,Calm,Calm,-,N/A,,Overcast,0,2013-12-13 23:55:00
6:15 PM,53.6,53.6,100,29.92,1.0,Calm,Calm,-,N/A,,Overcast,0,2013-12-14 00:15:00
6:35 PM,53.6,53.6,100,29.93,0.8,NW,4.6,-,N/A,,Overcast,320,2013-12-14 00:35:00
6:55 PM,53.6,53.6,100,29.94,0.2,NNW,5.8,-,N/A,Fog,Fog,340,2013-12-14 00:55:00
7:15 PM,53.6,53.6,100,29.93,0.2,Calm,Calm,-,N/A,Fog,Fog,0,2013-12-14 01:15:00
7:35 PM,53.6,53.6,100,29.94,0.2,WNW,5.8,-,N/A,Rain,Light Rain,300,2013-12-14 01:35:00
7:55 PM,51.8,51.8,100,29.95,0.5,WNW,9.2,-,0.01,Rain,Light Rain,300,2013-12-14 01:55:00
8:15 PM,51.8,51.8,100,29.97,1.0,West,9.2,-,0.01,Rain,Light Rain,280,2013-12-14 02:15:00
8:35 PM,50.0,50.0,100,29.96,1.8,WNW,5.8,-,0.02,Rain,Light Rain,290,2013-12-14 02:35:00
8:55 PM,50.0,50.0,100,29.96,2.0,NW,3.5,-,0.02,,Overcast,310,2013-12-14 02:55:00
9:15 PM,50.0,50.0,100,29.96,2.5,WNW,3.5,-,N/A,,Overcast,300,2013-12-14 03:15:00
9:35 PM,50.0,50.0,100,29.96,2.0,Calm,Calm,-,N/A,,Overcast,0,2013-12-14 03:35:00
9:55 PM,50.0,50.0,100,29.96,2.5,WNW,3.5,-,N/A,,Overcast,290,2013-12-14 03:55:00
10:15 PM,51.8,51.8,100,29.95,2.5,Calm,Calm,-,N/A,,Overcast,0,2013-12-14 04:15:00
10:35 PM,50.0,50.0,100,29.95,2.5,WSW,3.5,-,N/A,,Mostly Cloudy,250,2013-12-14 04:35:00
10:55 PM,50.0,50.0,100,29.95,1.5,Calm,Calm,-,N/A,,Overcast,0,2013-12-14 04:55:00
11:15 PM,50.0,50.0,100,29.94,1.5,West,3.5,-,N/A,,Overcast,260,2013-12-14 05:15:00
11:35 PM,50.0,50.0,100,29.93,0.8,Calm,Calm,-,N/A,,Overcast,0,2013-12-14 05:35:00
11:55 PM,48.2,48.2,100,29.92,0.2,SSE,6.9,-,N/A,Fog,Fog,150,2013-12-14 05:55:00